Weather History for KMSO - June, 2014

Change the Weather History Date:

Monday, June 9, 2014

  Actual Average Record
Temperature  
Mean Temperature 60 °F 59 °F  
Max Temperature 78 °F 73 °F 90 °F (1956)
Min Temperature 42 °F 46 °F 31 °F (1895)
Degree Days  
Heating Degree Days 5 6  
Month to date heating degree days 48 65  
Since 1 June heating degree days 48 65  
Since 1 July heating degree days 7366 7189  
Cooling Degree Days 0 1  
Month to date cooling degree days 0 9  
Year to date cooling degree days 0 15  
Since 1 June cooling degree days 0 9  
Growing Degree Days 12 (Base 50)    
Moisture  
Dew Point 37 °F    
Average Humidity 49    
Maximum Humidity 76    
Minimum Humidity 21    
Precipitation  
Precipitation 0.00 in 0.08 in 0.82 in (2002)
Month to date precipitation 0.03 0.75  
Year to date precipitation 6.87 6.53  
Snow  
Snow 0.00 in - - ()
Month to date snowfall 0.0  
Year to date snowfall 51.9  
Since 1 July snowfall 65.8  
Snow Depth 0.00 in    
Sea Level Pressure  
Sea Level Pressure 29.91 in    
Wind  
Wind Speed 8 mph (WNW)    
Max Wind Speed 25 mph    
Max Gust Speed 33 mph    
Visibility 10 miles    
Events      
T = Trace of Precipitation, MM = Missing Value Source: NWS Daily Summary

Daily Weather History Graph

Daily Weather History Graph

Search for Another Location

Airport or City:

Trip Planner

Search our weather history database for the weather conditions in past years. The results will help you decide how hot, cold, wet, or windy it might be!

Date:

Astronomy

Jun. 09, 2014 Rise Set
Actual Time 5:41 AM MDT 9:29 PM MDT
Civil Twilight 5:02 AM MDT 10:09 PM MDT
Nautical Twilight 4:09 AM MDT 11:02 PM MDT
Astronomical Twilight 2:52 AM MDT 12:19 AM MDT
Moon 5:43 PM MDT (6/9) 3:26 AM MDT (6/9)
Length of Visible Light 17h 06m
Length of Day
15h 47m
Waxing Gibbous, 85% of the Moon is Illuminated
Jun 9
Waxing Gibbous
Jun 12
Full
Jun 19
Last Quarter
Jun 27
New
Jul 5
First Quarter

Hourly Weather History & Observations

Time (MDT) Temp. Dew Point Humidity Pressure Visibility Wind Dir Wind Speed Gust Speed Precip Events Conditions
12:53 AM 54.0 °F 37.9 °F 55% 29.97 in 10.0 mi NNW 3.5 mph - N/A   Clear
1:53 AM 52.0 °F 37.9 °F 59% 29.97 in 10.0 mi NNE 3.5 mph - N/A   Clear
2:53 AM 52.0 °F 39.0 °F 61% 29.96 in 10.0 mi Calm Calm - N/A   Clear
3:53 AM 48.9 °F 37.9 °F 66% 29.97 in 10.0 mi Calm Calm - N/A   Clear
4:53 AM 46.9 °F 37.9 °F 71% 29.96 in 10.0 mi Calm Calm - N/A   Clear
5:53 AM 46.0 °F 39.0 °F 76% 29.96 in 10.0 mi Calm Calm - N/A   Clear
6:53 AM 46.9 °F 39.0 °F 74% 29.97 in 10.0 mi Calm Calm - N/A   Clear
7:53 AM 53.1 °F 39.9 °F 61% 29.95 in 10.0 mi Calm Calm - N/A   Clear
8:53 AM 59.0 °F 39.2 °F 48% 29.98 in 10.0 mi East 3.5 mph - N/A   Clear
9:53 AM 64.0 °F 39.9 °F 41% 29.92 in 10.0 mi Calm Calm - N/A   Mostly Cloudy
10:53 AM 68.0 °F 41.0 °F 37% 29.91 in 10.0 mi West 8.1 mph - N/A   Mostly Cloudy
11:53 AM 71.1 °F 37.9 °F 30% 29.90 in 10.0 mi West 19.6 mph 28.8 mph N/A   Overcast
1:53 PM 75.2 °F 39.2 °F 27% 29.93 in 10.0 mi West 18.4 mph 29.9 mph N/A   Mostly Cloudy
2:53 PM 77.0 °F 39.9 °F 26% 29.88 in 10.0 mi WNW 18.4 mph 24.2 mph N/A   Partly Cloudy
3:53 PM 75.9 °F 37.0 °F 24% 29.88 in 10.0 mi NW 13.8 mph 24.2 mph N/A   Partly Cloudy
4:53 PM 77.0 °F 36.0 °F 23% 29.88 in 10.0 mi West 11.5 mph 23.0 mph N/A   Clear
5:53 PM 77.0 °F 36.0 °F 23% 29.87 in 10.0 mi West 12.7 mph - N/A   Scattered Clouds
6:53 PM 75.9 °F 33.1 °F 21% 29.87 in 10.0 mi WNW 15.0 mph 23.0 mph N/A   Scattered Clouds
7:53 PM 73.9 °F 32.0 °F 21% 29.86 in 10.0 mi WNW 13.8 mph - N/A   Clear
8:53 PM 70.0 °F 34.0 °F 27% 29.86 in 10.0 mi WNW 12.7 mph - N/A   Clear
9:53 PM 63.0 °F 34.0 °F 34% 29.87 in 10.0 mi WNW 6.9 mph - N/A   Clear
10:53 PM 59.0 °F 35.1 °F 41% 29.88 in 10.0 mi North 6.9 mph - N/A   Clear
11:53 PM 57.0 °F 36.0 °F 45% 29.88 in 10.0 mi NNW 3.5 mph - N/A   Clear